Weather reports worldwide

Advertisment
Roma/Ciampino, Italy (16239): temperature & dewpoint: 15.01.2018 04:00:00 - 21.01.2018 04:00:00 (CET)Roma/Ciampino, Italy (16239): wind speed: 15.01.2018 04:00:00 - 21.01.2018 04:00:00 (CET)Roma/Ciampino, Italy (16239): wind direction: 15.01.2018 04:00:00 - 21.01.2018 04:00:00 (CET)Roma/Ciampino, Italy (16239): reduced air pressure: 15.01.2018 04:00:00 - 21.01.2018 04:00:00 (CET)Roma/Ciampino, Italy (16239): visibility: 15.01.2018 04:00:00 - 21.01.2018 04:00:00 (CET)Roma/Ciampino, Italy (16239): precipitation: 15.01.2018 04:00:00 - 21.01.2018 04:00:00 (CET)
Date & Time tt [°C] td [°C] ff [km/h] ff [kn] dd ppp [hPa] vv [km] rr [mm]
21.01.2018 04:00:00 - - - - - - - -
21.01.2018 03:00:00 11,0 8,0 11 6 SSE - 10 -
21.01.2018 02:00:00 11,0 6,0 11 6 S - 10 -
21.01.2018 01:00:00 9,8 5,7 11 6 SE 1009,0 20 -
21.01.2018 00:00:00 8,0 5,0 11 6 SE - 10 -
20.01.2018 23:00:00 8,0 5,0 11 6 SE - 10 -
20.01.2018 22:00:00 8,3 5,5 8 4 SE 1011,2 75 0,0
20.01.2018 21:00:00 9,0 6,0 9 5 SSE - 10 -
20.01.2018 20:00:00 10,0 6,0 8 4 S - 10 -
20.01.2018 19:00:00 9,9 7,3 5 3 S 1012,3 75 -
20.01.2018 18:00:00 11,0 5,0 8 4 SSW - 10 -
20.01.2018 17:00:00 13,0 7,0 8 4 WSW - 10 -
20.01.2018 16:00:00 13,3 7,0 9 5 W 1012,3 75 0,0
20.01.2018 15:00:00 14,0 3,0 9 5 NW - 10 -
20.01.2018 14:00:00 14,0 7,0 8 4 NW - 10 -
20.01.2018 13:00:00 13,2 6,9 9 5 NW 1012,7 10 -
20.01.2018 12:00:00 13,0 8,0 9 5 N - 10 -
20.01.2018 11:00:00 12,0 8,0 8 4 NNE - 10 -
20.01.2018 10:00:00 10,8 8,6 4 2 N 1013,5 30 0,0
20.01.2018 09:00:00 8,0 7,0 4 2 - - 10 -
20.01.2018 08:00:00 6,0 5,0 4 2 - - 10 -
20.01.2018 07:00:00 5,8 5,1 4 2 N 1012,1 10 -
20.01.2018 06:00:00 - - - - - - - -
20.01.2018 05:00:00 8,0 7,0 8 4 ESE - 10 -
20.01.2018 04:00:00 8,0 7,2 4 2 ENE 1011,3 - 0,0
20.01.2018 03:00:00 8,0 7,0 13 7 NNW - 10 -
20.01.2018 02:00:00 11,0 8,0 9 5 SE - 10 -
20.01.2018 01:00:00 10,6 9,2 4 2 E 1011,4 20 -
20.01.2018 00:00:00 11,0 9,0 15 8 SSE - 10 -
19.01.2018 23:00:00 12,0 9,0 15 8 SSE - 10 -
19.01.2018 22:00:00 12,1 9,6 15 8 SSE 1012,2 25 0,0
19.01.2018 21:00:00 12,0 10,0 16 9 SSE - 10 -
19.01.2018 20:00:00 12,0 9,0 18 10 SSE - 10 -
19.01.2018 19:00:00 11,7 9,4 13 7 SSE 1012,2 20 -
19.01.2018 18:00:00 12,0 10,0 13 7 SSE - 10 -
19.01.2018 17:00:00 11,0 9,0 15 8 SSE - 9 -
19.01.2018 16:00:00 11,3 9,7 13 7 SSE 1012,7 6 0,0
19.01.2018 15:00:00 11,0 10,0 15 8 SSE - 8 -
19.01.2018 14:00:00 12,0 10,0 16 9 SSE - 9 -
19.01.2018 13:00:00 11,6 10,0 15 8 S 1013,9 5 -
19.01.2018 12:00:00 12,0 10,0 15 8 S - 8 -
19.01.2018 11:00:00 12,0 10,0 13 7 S - 9 -
19.01.2018 10:00:00 11,5 9,6 13 7 SSE 1014,9 9 0,0
19.01.2018 09:00:00 11,0 9,0 11 6 S - 8 -
19.01.2018 08:00:00 11,0 9,0 9 5 S - 8 -
19.01.2018 07:00:00 10,9 9,4 11 6 S 1014,8 10 -
19.01.2018 06:00:00 11,0 9,0 9 5 S - 10 -
19.01.2018 05:00:00 11,0 9,0 11 6 S - 10 -
19.01.2018 04:00:00 10,9 8,8 11 6 S 1015,7 10 0,0
19.01.2018 03:00:00 11,0 9,0 9 5 S - 10 -
19.01.2018 02:00:00 11,0 9,0 8 4 SSW - 10 -
19.01.2018 01:00:00 11,1 9,7 11 6 S 1016,8 10 -
19.01.2018 00:00:00 11,0 9,0 11 6 S - 10 -
18.01.2018 23:00:00 11,0 9,0 9 5 S - 7 -
18.01.2018 22:00:00 11,1 8,5 11 6 S 1017,7 7 0,0
18.01.2018 21:00:00 11,0 8,0 15 8 SSE - 7 -
18.01.2018 20:00:00 11,0 8,0 13 7 S - 8 -
18.01.2018 19:00:00 11,2 7,1 18 10 SSE 1018,2 8 -
18.01.2018 18:00:00 11,0 6,0 16 9 SSE - 8 -
18.01.2018 17:00:00 12,0 7,0 16 9 S - 10 -
18.01.2018 16:00:00 11,9 6,5 15 8 S 1019,0 10 0,0
18.01.2018 15:00:00 12,0 5,0 16 9 S - 10 -
18.01.2018 14:00:00 13,0 4,0 16 9 S - 10 -
18.01.2018 13:00:00 12,9 1,8 18 10 S 1020,0 10 -
18.01.2018 12:00:00 13,0 0,0 9 5 S - 10 -
18.01.2018 11:00:00 9,0 0,0 9 5 WSW - 10 -
18.01.2018 10:00:00 9,6 -4,7 2 1 N 1020,5 20 0,0
18.01.2018 09:00:00 6,0 -7,0 11 6 E - 10 -
18.01.2018 08:00:00 1,0 -6,0 2 1 - - 10 -
18.01.2018 07:00:00 4,6 -9,1 13 7 E 1019,2 10 -
18.01.2018 06:00:00 4,0 -8,0 11 6 E - 10 -
18.01.2018 05:00:00 2,0 -5,0 9 5 E - 10 -
18.01.2018 04:00:00 1,1 -4,5 4 2 - 1018,7 10 0,0
18.01.2018 03:00:00 3,0 -6,0 4 2 - - 10 -
18.01.2018 02:00:00 6,0 -6,0 8 4 NNE - 10 -
18.01.2018 01:00:00 5,6 -6,0 13 7 NE 1016,9 10 -
18.01.2018 00:00:00 6,0 -5,0 11 6 NE - 10 -
17.01.2018 23:00:00 8,0 -6,0 16 9 N - 10 -
17.01.2018 22:00:00 8,1 -5,9 21 11 NNW 1013,8 10 0,0
17.01.2018 21:00:00 7,0 0,0 9 5 NNE - 10 -
17.01.2018 20:00:00 6,0 0,0 13 7 NNW - 10 -
17.01.2018 19:00:00 8,9 0,1 21 11 N 1009,9 10 -
17.01.2018 18:00:00 12,0 2,0 21 11 WNW - 10 -
17.01.2018 17:00:00 13,0 0,0 35 19 WNW - 10 -
17.01.2018 16:00:00 13,5 2,1 26 14 WNW 1005,0 10 0,0
17.01.2018 15:00:00 14,0 3,0 34 18 NW - 10 -
17.01.2018 14:00:00 14,0 3,0 28 15 WNW - 10 -
17.01.2018 13:00:00 14,9 4,4 35 19 WNW 1003,4 10 -
17.01.2018 12:00:00 15,0 7,0 34 18 WNW - 9 -
17.01.2018 11:00:00 14,0 11,0 24 13 W - 8 -
17.01.2018 10:00:00 14,4 10,6 18 10 WSW 1005,0 10 0,0
17.01.2018 09:00:00 13,0 10,0 11 6 WSW - 9 -
17.01.2018 08:00:00 13,0 10,0 11 6 SSW - 8 -
17.01.2018 07:00:00 12,7 10,0 9 5 S 1005,7 9 -
17.01.2018 06:00:00 13,0 10,0 9 5 S - 10 -
17.01.2018 05:00:00 13,0 10,0 8 4 SSW - 10 -
17.01.2018 04:00:00 12,7 10,5 8 4 SW 1007,8 10 0,0
17.01.2018 03:00:00 13,0 11,0 5 3 SW - 10 -
17.01.2018 02:00:00 13,0 11,0 8 4 SW - 10 -
17.01.2018 01:00:00 12,9 10,5 8 4 SW 1010,2 9 -
17.01.2018 00:00:00 12,0 11,0 8 4 S - 10 -
16.01.2018 23:00:00 12,0 11,0 8 4 S - 7 -
16.01.2018 22:00:00 12,0 10,5 8 4 SSE 1011,9 7 0,0
16.01.2018 21:00:00 12,0 11,0 8 4 SSE - 7 -
16.01.2018 20:00:00 12,0 11,0 8 4 SSE - 7 -
16.01.2018 19:00:00 12,1 10,4 8 4 S 1012,4 8 -
16.01.2018 18:00:00 13,0 10,0 8 4 SW - 7 -
16.01.2018 17:00:00 13,0 10,0 11 6 WSW - 8 -
16.01.2018 16:00:00 12,6 9,8 16 9 WSW 1014,0 8 0,0
16.01.2018 15:00:00 12,0 10,0 18 10 WSW - 8 -
16.01.2018 14:00:00 12,0 10,0 13 7 SW - 8 -
16.01.2018 13:00:00 12,2 9,1 13 7 SW 1015,8 9 -
16.01.2018 12:00:00 12,0 8,0 11 6 SW - 10 -
16.01.2018 11:00:00 11,0 9,0 13 7 SW - 9 -
16.01.2018 10:00:00 11,4 8,6 11 6 SW 1017,7 9 0,0
16.01.2018 09:00:00 11,0 9,0 11 6 SW - 10 -
16.01.2018 08:00:00 11,0 7,0 11 6 SSW - 10 -
16.01.2018 07:00:00 10,5 7,9 11 6 SSW 1017,6 10 -
16.01.2018 06:00:00 10,0 7,0 9 5 S - 10 -
16.01.2018 05:00:00 9,0 7,0 9 5 S - 10 -
16.01.2018 04:00:00 8,7 6,6 5 3 SSE 1019,1 10 0,0
16.01.2018 03:00:00 9,0 6,0 11 6 SE - 10 -
16.01.2018 02:00:00 10,0 7,0 11 6 S - 10 -
16.01.2018 01:00:00 9,1 7,4 5 3 SSE 1020,8 10 -
16.01.2018 00:00:00 10,0 7,0 11 6 SSE - 10 -
15.01.2018 23:00:00 9,0 6,0 8 4 SSE - 10 -
15.01.2018 22:00:00 9,0 6,5 9 5 SSE 1021,2 10 0,0
15.01.2018 21:00:00 9,0 7,0 9 5 SE - 10 -
15.01.2018 20:00:00 9,0 7,0 9 5 ESE - 10 -
15.01.2018 19:00:00 9,3 7,1 8 4 SE 1021,6 10 -
15.01.2018 18:00:00 10,0 9,0 4 2 - - 6 -
15.01.2018 17:00:00 11,0 9,0 9 5 W - 6 -
15.01.2018 16:00:00 11,9 7,8 5 3 SW 1021,1 9 0,0
15.01.2018 15:00:00 13,0 7,0 9 5 SSW - 10 -
15.01.2018 14:00:00 13,0 6,0 8 4 SW - 10 -
15.01.2018 13:00:00 12,8 6,5 2 1 - 1022,1 10 -
15.01.2018 12:00:00 12,0 6,0 5 3 NNW - 10 -
15.01.2018 11:00:00 10,0 7,0 5 3 N - 10 -
15.01.2018 10:00:00 9,0 5,7 5 3 N 1023,0 10 0,0
15.01.2018 09:00:00 8,0 4,0 5 3 E - 10 -
15.01.2018 08:00:00 6,0 5,0 4 2 - - 10 -
15.01.2018 07:00:00 6,9 4,7 5 3 NNW 1022,0 10 -
15.01.2018 06:00:00 7,0 6,0 5 3 N - 10 -
15.01.2018 05:00:00 7,0 5,0 8 4 N - 10 -
15.01.2018 04:00:00 7,9 5,0 4 2 N 1021,5 10 0,0

tt = temperature
td = dewpoint
ff = wind speed
dd = wind direction
ppp = reduced air pressure
vv = visibility
rr = precipitation

Next stations